Regional Weather Roundup
Issued by NWS Mt. Holly, NJ

Home | Current Version | Previous Version | Text Only | Print | Product List | Glossary On
Versions: 1 2 3 4 5 6 7 8 9 10 11 12 13 14 15 16 17 18 19 20 21 22 23 24 25 26 27 28 29 30 31 32 33 34 35 36 37 38 39 40 41 42 43 44 45 46 47 48 49 50
000
ASUS41 KPHI 281412
RWRPHI

REGIONAL WEATHER ROUNDUP
NATIONAL WEATHER SERVICE MOUNT HOLLY NJ
1000 AM EDT FRI AUG 28 2015

NOTE:  "FAIR" INDICATES FEW OR NO CLOUDS BELOW 12,000 FEET WITH NO
SIGNIFICANT WEATHER AND/OR OBSTRUCTIONS TO VISIBILITY.

 * = STATION DOES NOT REPORT PRECIPITATION (E.G. RAIN, SNOW, ETC.)
        OR FOG.

NJZ015>026-281500-
SOUTHERN NEW JERSEY

CITY           SKY/WX    TMP DP  RH WIND       PRES   REMARKS
POMONA         SUNNY     76  53  44 N6        30.19R
MILLVILLE      SUNNY     73  55  53 NE6       30.20R
WRIGHTSTOWN    SUNNY     72  58  61 N6        30.18R
MOUNT HOLLY    SUNNY     72  56  57 N6        30.20R
TRENTON        SUNNY     72  53  51 N7        30.20R

$$
NJZ001>014-281500-
NORTHERN NEW JERSEY

CITY           SKY/WX    TMP DP  RH WIND       PRES   REMARKS
SUSSEX         MOSUNNY   67  56  67 CALM      30.21S
ANDOVER*         N/A     67  55  65 VRB6      30.22R
MORRISTOWN     SUNNY     72  57  60 N9        30.20R
NEWARK         MOSUNNY   74  51  44 N10       30.19R
TETERBORO      SUNNY     72  52  49 NW6       30.18R
CALDWELL       SUNNY     70  54  56 NE3       30.20R
SOMERVILLE     SUNNY     72  53  51 VRB7      30.18S
ALLAIRE*       SUNNY     72  54  53 NW5       30.19R
TOMS RIVER*    SUNNY     72  55  56 CALM      30.20R

$$
PAZ043-044-047-054-055-060>062-066>071-281500-
EASTERN PENNSYLVANIA

CITY           SKY/WX    TMP DP  RH WIND       PRES   REMARKS
PHILADELPHIA   MOSUNNY   74  51  44 CALM      30.20R
NORTH PHILA    SUNNY     74  52  46 NE5       30.22R
BLUE BELL      SUNNY     72  57  60 CALM      30.21R
DOYLESTOWN     MOSUNNY   69  56  62 N8        30.21R
QUAKERTOWN*    SUNNY     68  57  68 NW5       30.23R
POTTSTOWN      SUNNY     70  57  63 CALM      30.23R
LANCASTER      SUNNY     70  55  59 CALM      30.22S
COATESVILLE    SUNNY     70  55  60 CALM      30.23S
READING        MOSUNNY   69  56  62 VRB5      30.21R
ALLENTOWN      SUNNY     68  55  63 CALM      30.22R
MOUNT POCONO   MOSUNNY   63  51  65 VRB6      30.24R
HAZLETON       CLOUDY    63  54  72 CALM      30.27S
WILKES BARRE   SUNNY     65  54  67 CALM      30.24R

$$
DEZALL-MDZ008-012-015-019-020-281500-
DELAWARE AND EASTERN MARYLAND

CITY           SKY/WX    TMP DP  RH WIND       PRES   REMARKS
WILMINGTON     SUNNY     74  55  51 VRB3      30.22R
DOVER          SUNNY     73  61  65 VRB3      30.20R
GEORGETOWN     SUNNY     75  58  55 N7        30.21R
EASTON         SUNNY     73  61  64 NE7       30.25R
ABERDEEN       SUNNY     75  59  57 CALM      30.19R
PATUXENT       MOSUNNY   75  58  55 NE7       30.21R
OCEAN CITY     SUNNY     76  58  53 NE10      30.19R
WALLOPS ISLAND MOSUNNY   77  60  55 N9        30.20R
CAMBRIDGE      SUNNY     73  59  60 CALM      30.21R
SALISBURY      SUNNY     75  61  61 N8        30.20R

$$
PAZ001-021-NYZ056-072-MDZ011-DCZ001-281500-
OTHER NEARBY LOCATIONS

CITY           SKY/WX    TMP DP  RH WIND       PRES   REMARKS
HARRISBURG     SUNNY     69  60  73 W3        30.21S
STATE COLLEGE  SUNNY     64  57  77 CALM      30.25S
WILLIAMSPORT   MOSUNNY   66  56  70 SW5       30.23S
BINGHAMTON     SUNNY     61  55  81 NW5       30.25R
NEW YORK CITY  SUNNY     70  52  52 MISG      30.21S
BALTIMORE      MOSUNNY   74  56  53 E6        30.21R
WASHINGTON DC  MOSUNNY   75  58  55 CALM      30.22R

$$


USA.gov is the U.S. government's official web portal to all federal, state and local government web resources and services.